[[{"header":{"parameterUnit":"m.s-1","parameterCategory":1,"la1":30.2991,"la2":30.254,"lo1":-89.0895,"lo2":-89.0444,"dy":0.0017,"dx":0.0017,"nx":28,"ny":28,"refTime":"2023-07-19T09:00:00:Z","depth":0,"parameterNumber":2,"parameterNumberName":"U-component_of_WINDS"},"data":[0,0,0,0,0,0,0,0,0,0,0,0,0,0,0,0,0,0,0,0,0,0,0,0,0,0,0,0,0,0,0,0,0,0,0,0,0,0,0,0,0,0,0,0,0,0,0,0,0,0,0,0,0,0,0,0,0,0,1.1158,1.1158,0,1.117,1.117,1.1171,1.1175,1.1175,1.1175,1.1175,1.1189,1.119,1.119,0,0,0,0,0,0,0,0,0,0,0,0,0,1.114,1.114,1.1158,1.1158,1.1158,1.117,1.117,1.1171,1.1175,1.1175,1.1175,1.1175,1.1189,1.119,1.119,0,0,0,0,0,0,0,0,0,0,0,0,0,1.115,1.1141,1.1158,1.1162,1.1162,1.117,1.117,1.1171,1.1175,1.1175,1.1175,1.1175,1.1189,1.119,1.119,1.1195,0,0,1.1192,1.1192,0,0,0,0,0,0,0,0,1.1149,1.115,1.1161,1.1162,1.1162,1.1171,1.1169,1.1179,1.1175,1.117,1.1175,1.1175,1.1183,1.1184,1.1187,1.1196,1.1196,1.1192,1.1193,1.1193,1.1193,0,0,0,0,0,0,0,1.1149,1.115,1.1163,1.1161,1.1162,1.1164,1.1165,1.1171,1.1177,1.1171,1.1171,1.1173,1.1184,1.1186,1.1187,1.1197,1.1192,1.1193,1.1193,1.1193,1.1212,1.1212,0,0,0,0,0,0,1.1147,1.1149,1.1162,1.1163,1.1155,1.1164,1.1166,1.1168,1.1177,1.1178,1.1173,1.1173,1.1185,1.1187,1.1188,1.1195,1.1193,1.1193,1.1194,1.1212,1.1212,1.1212,0,0,0,0,0,0,1.1147,1.1148,1.1162,1.1156,1.1158,1.1165,1.1168,1.1169,1.1171,1.1178,1.118,1.1174,1.1185,1.1187,1.1194,1.1196,1.1194,1.1194,1.1212,1.1212,1.1212,1.1209,0,0,0,0,0,0,1.1146,1.1148,1.1149,1.1156,1.1158,1.1167,1.1168,1.1169,1.1172,1.1173,1.118,1.1181,1.1185,1.1193,1.1194,1.1197,1.1195,1.1212,1.1212,1.1212,1.1209,1.1209,1.1209,0,0,0,0,0,1.1145,1.1148,1.1149,1.1151,1.116,1.1167,1.1168,1.1172,1.1172,1.1174,1.1179,1.1181,1.1195,1.1193,1.1195,1.1198,1.1212,1.1212,1.1212,1.1209,1.1209,1.1209,0,0,0,0,0,0,1.1141,1.1149,1.115,1.1155,1.116,1.1167,1.117,1.1172,1.1177,1.1178,1.1183,1.1185,1.1191,1.1195,1.1193,1.1204,1.1204,1.1204,1.1201,1.1201,1.1201,1.12,1.1195,0,0,0,0,0,1.114,1.1144,1.1151,1.1155,1.1157,1.1163,1.1166,1.1169,1.1175,1.1177,1.1182,1.1188,1.1194,1.1198,1.1204,1.121,1.1212,1.1213,1.1213,1.1213,1.1214,1.1219,1.1219,1.1213,1.1213,1.1213,0,0,1.1139,1.1144,1.1146,1.1154,1.1158,1.1163,1.1165,1.1169,1.1174,1.1178,1.1184,1.1189,1.1196,1.1203,1.1206,1.1206,1.1216,1.1213,1.1213,1.1214,1.1219,1.122,1.122,1.1213,1.1213,1.1213,0,0,1.114,1.1143,1.1147,1.1152,1.1158,1.1163,1.1164,1.1171,1.1174,1.1181,1.1184,1.119,1.12,1.1205,1.1209,1.1213,1.1216,1.1215,1.1216,1.1221,1.1221,1.1222,1.1224,1.1225,1.1216,1.1216,1.1216,0,1.1137,1.1144,1.1149,1.1154,1.1158,1.1162,1.1167,1.1171,1.1179,1.1182,1.1182,1.1196,1.1201,1.121,1.1211,1.1214,1.1216,1.1214,1.1221,1.1221,1.1222,1.1224,1.1225,1.1216,1.1216,1.1216,1.1216,0,1.1142,1.1147,1.1149,1.1157,1.1161,1.1166,1.1172,1.1176,1.1179,1.1184,1.1192,1.1198,1.1206,1.1208,1.1211,1.1218,1.1218,1.1219,1.1219,1.1222,1.1224,1.1225,1.1216,1.1216,1.1216,1.1216,0,0,1.1139,1.115,1.1151,1.1155,1.1164,1.1168,1.1174,1.1181,1.1185,1.1191,1.1197,1.1206,1.1207,1.1212,1.1216,1.122,1.1225,1.1221,1.1221,1.1222,1.1234,1.1233,1.1234,1.1227,1.1227,1.1227,1.1233,0,1.1141,1.115,1.1155,1.1163,1.1168,1.1173,1.1179,1.1185,1.119,1.1196,1.1201,1.1208,1.1209,1.1212,1.1217,1.1223,1.1227,1.1223,1.1232,1.1233,1.123,1.1235,1.1233,1.1239,1.1234,1.1234,1.1234,0,1.1144,1.115,1.1158,1.1167,1.117,1.1174,1.1182,1.1188,1.1196,1.1199,1.1205,1.1209,1.1216,1.1216,1.1227,1.1224,1.1229,1.1233,1.1233,1.1234,1.1233,1.1236,1.1241,1.1242,1.1236,1.1236,1.1236,0,1.1141,1.1152,1.1158,1.1162,1.1172,1.1176,1.118,1.1188,1.1193,1.12,1.1204,1.1212,1.1217,1.1224,1.123,1.123,1.1241,1.1241,1.1245,1.1245,1.1247,1.1246,1.1252,1.125,1.125,1.125,1.125,0,1.1143,1.1148,1.1157,1.1161,1.1168,1.1174,1.1181,1.1186,1.1193,1.1199,1.1205,1.121,1.1219,1.1226,1.1232,1.124,1.1242,1.1246,1.1247,1.1246,1.1245,1.1248,1.1248,1.125,1.125,1.125,1.125,0,1.1141,1.1147,1.1155,1.1165,1.1168,1.1172,1.1181,1.1186,1.1191,1.1199,1.1201,1.121,1.1219,1.1227,1.1238,1.1242,1.1252,1.1253,1.1249,1.1249,1.1253,1.1252,1.1261,1.1263,1.1259,1.1259,1.1259,0,1.1141,1.1145,1.1156,1.116,1.1165,1.1172,1.1177,1.1184,1.1189,1.1199,1.1203,1.1212,1.122,1.1234,1.1243,1.1252,1.1254,1.1257,1.1255,1.1254,1.1255,1.1254,1.1255,1.1256,1.1256,1.1256,1.1256,0,1.1142,1.1145,1.1152,1.116,1.1166,1.1173,1.118,1.1184,1.1193,1.1198,1.1207,1.1213,1.1226,1.1235,1.1246,1.1252,1.1256,1.1257,1.1258,1.1256,1.1254,1.1256,1.1249,1.1256,1.1256,1.1256,1.1256,1.1256,1.1142,1.1146,1.1154,1.1162,1.1168,1.1175,1.118,1.1187,1.1195,1.1205,1.1209,1.1219,1.1228,1.1243,1.1249,1.1257,1.1258,1.126,1.126,1.1261,1.1261,1.1252,1.1259,1.1259,1.1259,1.1259,1.1259,0,1.1143,1.1149,1.1156,1.1166,1.1172,1.1175,1.1184,1.1189,1.1198,1.1206,1.1214,1.1225,1.1235,1.1244,1.1255,1.126,1.1262,1.1262,1.1262,1.1263,1.1259,1.1257,1.126,1.126,1.126,1.126,1.126,1.126,1.1144,1.1152,1.1156,1.1168,1.1174,1.1183,1.1188,1.1195,1.1202,1.1214,1.1222,1.1228,1.1237,1.1249,1.1258,1.1261,1.1265,1.1265,1.1268,1.1264,1.1264,1.1263,1.1261,1.1265,1.1265,1.1271,1.1271,1.1271]},{"header":{"parameterUnit":"m.s-1","parameterCategory":1,"la1":30.2991,"la2":30.254,"lo1":-89.0895,"lo2":-89.0444,"dy":0.0017,"dx":0.0017,"nx":28,"ny":28,"refTime":"2023-07-19T09:00:00:Z","depth":0,"parameterNumber":3,"parameterNumberName":"V-component_of_WINDS"},"data":[0,0,0,0,0,0,0,0,0,0,0,0,0,0,0,0,0,0,0,0,0,0,0,0,0,0,0,0,0,0,0,0,0,0,0,0,0,0,0,0,0,0,0,0,0,0,0,0,0,0,0,0,0,0,0,0,0,0,1.4372,1.4372,0,1.4345,1.4345,1.4344,1.4298,1.4298,1.4297,1.4296,1.4266,1.4266,1.4266,0,0,0,0,0,0,0,0,0,0,0,0,0,1.4379,1.438,1.4372,1.4372,1.4371,1.4345,1.4345,1.4344,1.4299,1.4298,1.4296,1.4296,1.4266,1.4266,1.4266,0,0,0,0,0,0,0,0,0,0,0,0,0,1.4367,1.438,1.4372,1.4346,1.4343,1.4345,1.4345,1.4344,1.4299,1.4297,1.4296,1.4295,1.4266,1.4266,1.4266,1.4291,0,0,1.4266,1.4266,0,0,0,0,0,0,0,0,1.4367,1.4366,1.435,1.4347,1.4344,1.4324,1.4336,1.4326,1.4299,1.4315,1.4296,1.4294,1.4286,1.4284,1.4282,1.429,1.4288,1.4266,1.4266,1.4266,1.4266,0,0,0,0,0,0,0,1.4368,1.4367,1.4361,1.435,1.4346,1.4333,1.433,1.4334,1.4308,1.4314,1.4311,1.4308,1.4284,1.4282,1.4281,1.4288,1.4266,1.4266,1.4266,1.4266,1.431,1.4311,0,0,0,0,0,0,1.4374,1.4368,1.4362,1.4361,1.4353,1.4334,1.4331,1.4332,1.4308,1.4303,1.4309,1.4306,1.4283,1.4281,1.428,1.4304,1.4266,1.4266,1.4266,1.4309,1.431,1.4312,0,0,0,0,0,0,1.4374,1.4374,1.4363,1.4363,1.4361,1.4335,1.4337,1.4332,1.4329,1.4304,1.4299,1.4312,1.4282,1.428,1.4288,1.4302,1.4266,1.4266,1.4308,1.4309,1.4311,1.4356,0,0,0,0,0,0,1.4375,1.4374,1.4385,1.4364,1.4361,1.4374,1.4338,1.4332,1.433,1.4326,1.4306,1.4301,1.428,1.4288,1.4288,1.4302,1.4266,1.4306,1.4308,1.431,1.4353,1.4359,1.4364,0,0,0,0,0,1.4375,1.4399,1.4386,1.4385,1.4375,1.4375,1.4373,1.4349,1.4332,1.4341,1.4324,1.4302,1.4301,1.4289,1.4288,1.4303,1.4305,1.4308,1.431,1.435,1.4358,1.4364,0,0,0,0,0,0,1.4422,1.4396,1.4381,1.4399,1.4389,1.4367,1.4378,1.4359,1.4353,1.4349,1.4319,1.4315,1.4326,1.4316,1.4302,1.4324,1.4299,1.4302,1.433,1.4337,1.4342,1.4344,1.4266,0,0,0,0,0,1.4435,1.4438,1.4415,1.4433,1.4429,1.4405,1.4404,1.4386,1.4374,1.437,1.4354,1.4342,1.4339,1.4338,1.4334,1.4352,1.4344,1.4361,1.4366,1.4371,1.4373,1.4377,1.4383,1.432,1.432,1.432,0,0,1.4461,1.4447,1.4451,1.4442,1.4432,1.4434,1.4401,1.4406,1.4406,1.437,1.4376,1.4364,1.4349,1.4361,1.4365,1.4352,1.4389,1.4375,1.4379,1.4378,1.4381,1.4387,1.4392,1.4322,1.4322,1.4322,0,0,1.4508,1.45,1.4512,1.4503,1.4488,1.4471,1.4474,1.4454,1.4444,1.445,1.4422,1.4421,1.4418,1.4407,1.4401,1.4441,1.4419,1.4441,1.4469,1.4474,1.4478,1.4483,1.4493,1.4498,1.4443,1.4443,1.4443,0,1.4542,1.4545,1.4521,1.4526,1.4521,1.4489,1.4499,1.4491,1.4476,1.4473,1.4459,1.4451,1.4439,1.4446,1.4455,1.4453,1.4452,1.4442,1.448,1.4484,1.4487,1.4497,1.4502,1.4446,1.4445,1.4445,1.4445,0,1.4585,1.4588,1.4599,1.4585,1.4582,1.459,1.4564,1.4564,1.4546,1.453,1.4534,1.4518,1.4508,1.4509,1.4492,1.4512,1.4504,1.4486,1.446,1.4496,1.4505,1.4509,1.4449,1.4448,1.4447,1.4447,0,0,1.4662,1.4632,1.4636,1.4628,1.4608,1.4609,1.4614,1.4605,1.4603,1.4593,1.4595,1.4591,1.4573,1.4566,1.4547,1.4552,1.458,1.4532,1.4531,1.4539,1.4596,1.4608,1.4614,1.4566,1.4566,1.4567,1.4596,0,1.4703,1.4711,1.4687,1.47,1.47,1.4668,1.4672,1.4659,1.4644,1.464,1.4622,1.4618,1.4597,1.4592,1.4595,1.4576,1.459,1.4574,1.4564,1.4564,1.4566,1.4619,1.4632,1.4661,1.46,1.4601,1.4601,0,1.4752,1.4743,1.4756,1.4733,1.4731,1.4736,1.4723,1.4721,1.4705,1.4693,1.4684,1.4662,1.4663,1.464,1.4638,1.4627,1.4622,1.4612,1.4612,1.4608,1.4583,1.4613,1.467,1.4673,1.4607,1.4606,1.4606,0,1.4801,1.4794,1.4799,1.4793,1.4767,1.477,1.4759,1.4742,1.4737,1.4726,1.4721,1.4711,1.4704,1.4695,1.467,1.4656,1.467,1.4646,1.4658,1.4658,1.466,1.466,1.4714,1.4662,1.4662,1.4661,1.4661,0,1.4848,1.4856,1.4821,1.4824,1.4831,1.4803,1.4811,1.4796,1.4781,1.4779,1.4751,1.4749,1.4717,1.4711,1.4692,1.4691,1.4689,1.4678,1.4672,1.4679,1.468,1.4673,1.4669,1.4663,1.4662,1.4662,1.4662,0,1.4904,1.4881,1.4884,1.4859,1.4853,1.4859,1.4836,1.4836,1.4819,1.4816,1.4814,1.4786,1.4777,1.4751,1.4737,1.4723,1.4727,1.4718,1.4733,1.4728,1.474,1.4739,1.479,1.4794,1.4742,1.4742,1.4743,0,1.4934,1.4939,1.4913,1.491,1.49,1.4896,1.489,1.4863,1.4857,1.4837,1.484,1.4829,1.4818,1.4806,1.4783,1.477,1.4759,1.4777,1.4756,1.4762,1.4755,1.4754,1.4753,1.4781,1.4782,1.4783,1.4783,0,1.4987,1.4975,1.4968,1.4957,1.4951,1.494,1.4928,1.4927,1.4895,1.489,1.4881,1.4873,1.4857,1.4845,1.4828,1.4815,1.4793,1.479,1.4791,1.4797,1.4804,1.4797,1.4742,1.4788,1.4788,1.4788,1.4787,1.4787,1.5029,1.503,1.5012,1.5004,1.4992,1.4981,1.4979,1.4961,1.4953,1.4938,1.4922,1.4914,1.4894,1.4869,1.4857,1.4849,1.4837,1.484,1.4841,1.4841,1.4843,1.4808,1.4846,1.4846,1.4846,1.4845,1.4845,0,1.5078,1.5064,1.5058,1.5041,1.5034,1.5015,1.5,1.4995,1.4988,1.4972,1.4962,1.495,1.4938,1.4914,1.4899,1.4896,1.4886,1.4893,1.4892,1.4888,1.4856,1.4854,1.4902,1.4902,1.4902,1.4902,1.4902,1.4902,1.5103,1.5103,1.5089,1.5082,1.5068,1.506,1.5053,1.5041,1.5028,1.5016,1.5005,1.499,1.497,1.4953,1.494,1.4933,1.4927,1.4938,1.4927,1.4896,1.4891,1.4886,1.4884,1.4937,1.4937,1.496,1.496,1.496]}]]